KC3HIX Weather Reports


time (UTC)temp
F
wind
direction
speed
knots
gust
knots
rain 1hr
in
rain 24hr
in
rain mn
in
humidity
%
barometer
mb
20260509234509 57 0 0.0 0.0 0.00 0.30 0.30 84 1008.2
20260509234010 57 0 0.0 0.0 0.00 0.30 0.30 84 1008.2
20260509233510 58 0 0.0 0.0 0.00 0.30 0.30 83 1008.2
20260509233010 58 0 0.0 0.0 0.00 0.30 0.30 83 1008.2
20260509232530 58 0 0.0 0.0 0.00 0.30 0.30 83 1008.6
20260509232009 58 0 0.0 0.0 0.00 0.30 0.30 83 1008.6
20260509231509 58 0 0.0 0.0 0.00 0.30 0.30 82 1008.6
20260509231031 58 0 0.0 0.0 0.00 0.30 0.30 82 1008.2
20260509230509 59 0 0.0 0.0 0.00 0.30 0.30 82 1008.2
20260509230009 59 0 0.0 0.0 0.00 0.30 0.30 82 1008.6
20260509225509 59 0 0.0 0.0 0.00 0.30 0.30 82 1008.6
20260509225009 59 0 0.0 0.0 0.00 0.30 0.30 83 1008.6
20260509224509 59 0 0.0 0.0 0.00 0.30 0.30 83 1008.6
20260509224009 59 0 0.0 0.0 0.00 0.30 0.30 82 1008.6
20260509223530 60 0 0.0 0.0 0.00 0.30 0.30 82 1008.6
20260509223009 60 0 0.0 0.0 0.00 0.30 0.30 82 1008.6
20260509222509 60 0 0.0 0.0 0.00 0.30 0.30 82 1008.2
20260509222009 60 0 0.0 0.0 0.00 0.30 0.30 82 1008.6
20260509221509 61 0 0.0 0.0 0.00 0.30 0.30 83 1008.6
20260509221030 61 0 0.0 0.0 0.00 0.30 0.30 82 1008.9
20260509220509 61 0 0.0 0.0 0.00 0.30 0.30 82 1008.6
20260509220009 61 0 0.0 0.0 0.00 0.30 0.30 82 1008.9
20260509215509 61 0 0.0 0.0 0.00 0.30 0.30 82 1008.9
20260509215009 61 0 0.0 0.0 0.00 0.30 0.30 81 1008.9
20260509214509 62 0 0.0 0.0 0.00 0.30 0.30 82 1008.9
20260509214009 62 0 0.0 0.0 0.00 0.30 0.30 82 1008.9
20260509213509 62 0 0.0 0.0 0.00 0.30 0.30 82 1008.9
20260509213009 62 0 0.0 0.0 0.00 0.30 0.30 83 1008.9
20260509212530 62 0 0.0 0.0 0.00 0.30 0.30 84 1008.9
20260509212009 62 0 0.0 0.0 0.00 0.30 0.30 83 1008.9
20260509211509 62 0 0.0 0.0 0.00 0.30 0.30 81 1008.9
20260509211009 62 0 0.0 0.0 0.00 0.30 0.30 82 1008.9
20260509210509 62 0 0.0 0.0 0.00 0.30 0.30 84 1008.9
20260509210009 62 0 0.0 0.0 0.00 0.30 0.30 85 1008.9
20260509205509 62 0 0.0 0.0 0.00 0.30 0.30 85 1008.9
20260509205009 61 0 0.0 0.0 0.00 0.30 0.30 85 1008.9
20260509204530 60 0 0.0 0.0 0.00 0.30 0.30 85 1008.9
20260509204009 60 0 0.0 0.0 0.01 0.30 0.30 85 1008.9
20260509203509 60 0 0.0 0.0 0.01 0.30 0.30 84 1009.3
20260509203009 60 0 0.0 0.0 0.01 0.30 0.30 84 1009.3
20260509202509 61 0 0.0 0.0 0.01 0.30 0.30 85 1009.6
20260509202009 61 0 0.0 0.0 0.01 0.30 0.30 86 1009.3
20260509201509 60 0 0.0 0.0 0.01 0.30 0.30 87 1009.3
20260509201009 60 0 0.0 0.0 0.01 0.30 0.30 87 1009.6
20260509200509 60 0 0.0 0.0 0.01 0.30 0.30 88 1009.3
20260509200030 60 0 0.0 0.0 0.01 0.30 0.30 88 1009.3
20260509195509 59 0 0.0 0.0 0.01 0.30 0.30 89 1009.3
20260509195009 59 0 0.0 0.0 0.02 0.30 0.30 89 1009.3
20260509194530 59 0 0.0 0.0 0.02 0.30 0.30 89 1009.6
20260509194009 58 0 0.0 0.0 0.01 0.29 0.29 88 1009.6
20260509193509 58 0 0.0 0.0 0.01 0.29 0.29 89 1009.6
20260509193009 58 0 0.0 0.0 0.01 0.29 0.29 88 1009.6
20260509192509 59 0 0.0 0.0 0.02 0.29 0.29 89 1009.9
20260509192008 59 0 0.0 0.0 0.03 0.29 0.29 89 1009.9
20260509191508 58 0 0.0 0.0 0.03 0.29 0.29 90 1009.6
20260509191009 58 0 0.0 0.0 0.04 0.30 0.29 90 1009.9
20260509190509 58 0 0.0 0.0 0.05 0.30 0.29 91 1009.6
20260509190009 58 0 0.0 0.0 0.06 0.30 0.29 91 1009.9
20260509185508 57 0 0.0 0.0 0.07 0.30 0.29 93 1009.9
20260509185009 57 0 0.0 0.0 0.07 0.29 0.28 93 1009.9
20260509184508 56 0 0.0 0.0 0.08 0.29 0.28 93 1009.9
20260509184008 56 0 0.0 0.0 0.09 0.29 0.28 93 1009.9
20260509183508 56 0 0.0 0.0 0.10 0.29 0.28 92 1009.9
20260509183030 56 0 0.0 0.0 0.11 0.29 0.28 92 1009.9
20260509182508 56 0 0.0 0.0 0.11 0.28 0.27 92 1009.9
20260509182008 56 0 0.0 0.0 0.10 0.27 0.26 92 1010.3
20260509181508 56 0 0.0 0.0 0.11 0.27 0.26 92 1009.9
20260509181008 55 0 0.0 0.0 0.10 0.26 0.25 91 1010.3
20260509180508 55 0 0.0 0.0 0.09 0.25 0.24 91 1009.9
20260509180008 55 0 0.0 0.0 0.08 0.24 0.23 91 1010.3
20260509175508 55 0 0.0 0.0 0.08 0.23 0.22 91 1010.3
20260509175008 55 0 0.0 0.0 0.07 0.22 0.21 90 1010.3
20260509174508 55 0 0.0 0.0 0.06 0.21 0.20 90 1010.3
20260509174008 56 0 0.0 0.0 0.06 0.20 0.19 90 1010.3
20260509173529 56 0 0.0 0.0 0.05 0.19 0.18 90 1010.3
20260509173008 56 0 0.0 0.0 0.04 0.18 0.17 89 1010.3
20260509172529 56 0 0.0 0.0 0.03 0.17 0.16 89 1010.3
20260509172008 56 0 0.0 0.0 0.03 0.17 0.16 89 1010.3
20260509171508 56 0 0.0 0.0 0.02 0.16 0.15 88 1010.3
20260509171008 56 0 0.0 0.0 0.03 0.16 0.15 89 1009.9
20260509170508 56 0 0.0 0.0 0.03 0.16 0.15 88 1010.3
20260509170008 56 0 0.0 0.0 0.04 0.16 0.15 88 1010.3
20260509165508 56 0 0.0 0.0 0.03 0.15 0.14 88 1010.3
20260509165008 56 0 0.0 0.0 0.03 0.15 0.14 89 1010.3
20260509164508 56 0 0.0 0.0 0.04 0.15 0.14 89 1010.3
20260509164029 56 0 0.0 0.0 0.04 0.14 0.13 88 1010.6
20260509163529 56 0 0.0 0.0 0.05 0.14 0.13 88 1010.3
20260509163008 56 0 0.0 0.0 0.05 0.14 0.13 89 1010.3
20260509162508 56 0 0.0 0.0 0.06 0.14 0.13 88 1009.9
20260509162008 56 0 0.0 0.0 0.06 0.14 0.13 89 1010.3
20260509161508 56 0 0.0 0.0 0.06 0.14 0.13 89 1010.3
20260509161008 56 0 0.0 0.0 0.05 0.13 0.12 89 1010.6
20260509160529 56 0 0.0 0.0 0.05 0.13 0.12 89 1010.6
20260509160008 56 0 0.0 0.0 0.04 0.12 0.11 88 1010.6
20260509155508 56 0 0.0 0.0 0.04 0.12 0.11 88 1010.6
20260509155008 56 0 0.0 0.0 0.04 0.12 0.11 88 1010.6
20260509154508 56 0 0.0 0.0 0.03 0.11 0.10 86 1010.6
20260509154008 56 0 0.0 0.0 0.02 0.10 0.09 86 1011.0
20260509153508 56 0 0.0 0.0 0.01 0.09 0.08 86 1010.6
20260509153008 57 0 0.0 0.0 0.01 0.09 0.08 86 1010.6
20260509152529 57 0 0.0 0.0 0.01 0.08 0.07 85 1010.6
20260509152029 56 0 0.0 0.0 0.01 0.08 0.07 86 1010.6
20260509151529 56 0 0.0 0.0 0.01 0.08 0.07 85 1010.6
20260509151008 56 0 0.0 0.0 0.02 0.08 0.07 85 1010.6
20260509150508 57 0 0.0 0.0 0.02 0.08 0.07 87 1010.6
20260509150008 56 0 0.0 0.0 0.02 0.08 0.07 87 1010.6
20260509145508 56 0 0.0 0.0 0.02 0.08 0.07 87 1010.6
20260509145008 56 0 0.0 0.0 0.02 0.08 0.07 86 1010.6
20260509144507 56 0 0.0 0.0 0.02 0.08 0.07 86 1010.6
20260509144008 55 0 0.0 0.0 0.02 0.08 0.07 87 1010.6
20260509143529 55 0 0.0 0.0 0.02 0.08 0.07 86 1010.6
20260509143008 55 0 0.0 0.0 0.02 0.08 0.07 87 1010.6
20260509142529 55 0 0.0 0.0 0.02 0.07 0.06 87 1010.6
20260509142007 56 0 0.0 0.0 0.02 0.07 0.06 87 1010.6
20260509141529 55 0 0.0 0.0 0.02 0.07 0.06 88 1010.6
20260509141028 55 0 0.0 0.0 0.01 0.06 0.06 89 1010.6
20260509140507 55 0 0.0 0.0 0.01 0.06 0.05 89 1010.6
20260509140008 55 0 0.0 0.0 0.02 0.06 0.05 89 1011.0
20260509135507 55 0 0.0 0.0 0.02 0.06 0.05 89 1010.6
20260509135007 55 0 0.0 0.0 0.02 0.06 0.05 89 1010.6
20260509134528 55 0 0.0 0.0 0.02 0.06 0.05 90 1010.6
20260509134007 55 0 0.0 0.0 0.03 0.06 0.05 90 1010.6
20260509133507 54 0 0.0 0.0 0.03 0.06 0.05 90 1010.6
20260509133007 54 0 0.0 0.0 0.03 0.06 0.05 90 1010.6
20260509132507 54 0 0.0 0.0 0.02 0.05 0.04 90 1010.6
20260509132028 54 0 0.0 0.0 0.02 0.05 0.04 91 1010.6
20260509131507 54 0 0.0 0.0 0.02 0.05 0.04 91 1011.0
20260509131007 54 0 0.0 0.0 0.02 0.05 0.04 92 1011.0
20260509130507 53 0 0.0 0.0 0.02 0.06 0.04 92 1011.0
20260509130007 53 0 0.0 0.0 0.01 0.05 0.03 92 1011.0
20260509125528 53 0 0.0 0.0 0.01 0.05 0.03 92 1011.0
20260509125007 53 0 0.0 0.0 0.01 0.05 0.03 91 1011.0
20260509124507 53 0 0.0 0.0 0.01 0.05 0.03 92 1011.0
20260509124007 52 0 0.0 0.0 0.00 0.04 0.02 91 1010.6
20260509123507 52 0 0.0 0.0 0.00 0.04 0.02 91 1011.0
20260509123007 52 0 0.0 0.0 0.00 0.04 0.02 91 1010.6
20260509122507 52 0 0.0 0.0 0.00 0.04 0.02 91 1010.6
20260509122007 52 0 0.0 0.0 0.00 0.04 0.02 92 1010.6
20260509121507 52 0 0.0 0.0 0.00 0.04 0.02 92 1010.6
20260509121028 52 0 0.0 0.0 0.00 0.04 0.02 92 1010.6
20260509120508 52 0 0.0 0.0 0.00 0.04 0.02 92 1010.6
20260509120007 52 0 0.0 0.0 0.00 0.04 0.02 92 1010.6
20260509115507 52 0 0.0 0.0 0.00 0.04 0.02 93 1010.6
20260509115028 52 0 0.0 0.0 0.00 0.04 0.02 93 1010.3
20260509114507 52 0 0.0 0.0 0.00 0.04 0.02 94 1010.6
20260509114007 52 0 0.0 0.0 0.00 0.04 0.02 94 1010.6
20260509113507 52 0 0.0 0.0 0.00 0.04 0.02 94 1010.3
20260509113007 52 0 0.0 0.0 0.01 0.04 0.02 95 1010.3
20260509112528 51 0 0.0 0.0 0.01 0.04 0.02 94 1010.6
20260509112007 51 0 0.0 0.0 0.01 0.04 0.02 94 1010.3
20260509111528 51 0 0.0 0.0 0.01 0.04 0.02 94 1010.6
20260509111007 51 0 0.0 0.0 0.01 0.04 0.02 93 1010.6
20260509110507 51 0 0.0 0.0 0.01 0.04 0.02 93 1010.6
20260509110028 50 0 0.0 0.0 0.01 0.04 0.02 93 1010.3
20260509105507 50 0 0.0 0.0 0.01 0.04 0.02 93 1010.3
20260509105007 50 0 0.0 0.0 0.01 0.04 0.02 93 1009.9
20260509104507 50 0 0.0 0.0 0.01 0.04 0.02 93 1010.3
20260509104007 50 0 0.0 0.0 0.01 0.04 0.02 93 1010.3
20260509103507 50 0 0.0 0.0 0.01 0.04 0.02 94 1010.3
20260509103007 50 0 0.0 0.0 0.00 0.03 0.01 94 1010.3
20260509102528 50 0 0.0 0.0 0.00 0.03 0.01 94 1010.3
20260509102007 50 0 0.0 0.0 0.00 0.03 0.01 94 1010.3
20260509101507 50 0 0.0 0.0 0.00 0.03 0.01 94 1010.3
20260509101007 50 0 0.0 0.0 0.00 0.03 0.01 94 1010.3
20260509100507 51 0 0.0 0.0 0.00 0.03 0.01 94 1010.6
20260509100027 50 0 0.0 0.0 0.00 0.03 0.01 94 1010.3
20260509095507 51 0 0.0 0.0 0.00 0.03 0.01 94 1010.6
20260509095006 51 0 0.0 0.0 0.00 0.03 0.01 94 1010.6
20260509094506 51 0 0.0 0.0 0.00 0.03 0.01 94 1010.3
20260509094027 50 0 0.0 0.0 0.00 0.03 0.01 93 1010.6
20260509093506 51 0 0.0 0.0 0.00 0.03 0.01 93 1010.6
20260509093006 50 0 0.0 0.0 0.00 0.03 0.01 93 1010.6
20260509092506 50 0 0.0 0.0 0.00 0.03 0.01 92 1011.0
20260509092007 50 0 0.0 0.0 0.00 0.03 0.01 93 1010.6
20260509091506 50 0 0.0 0.0 0.00 0.03 0.01 92 1011.0
20260509091006 50 0 0.0 0.0 0.00 0.03 0.01 92 1010.6
20260509090506 50 0 0.0 0.0 0.00 0.03 0.01 91 1011.0
20260509090006 50 0 0.0 0.0 0.00 0.03 0.01 91 1010.6
20260509085506 50 0 0.0 0.0 0.00 0.03 0.01 90 1010.6
20260509085006 50 0 0.0 0.0 0.00 0.03 0.01 90 1010.3
20260509084527 50 0 0.0 0.0 0.00 0.03 0.01 89 1010.6
20260509084006 50 0 0.0 0.0 0.00 0.03 0.01 89 1010.6
20260509083506 50 0 0.0 0.0 0.00 0.03 0.01 89 1010.6
20260509083006 50 0 0.0 0.0 0.00 0.03 0.01 90 1010.6
20260509082506 50 0 0.0 0.0 0.00 0.03 0.01 90 1010.6
20260509082027 50 0 0.0 0.0 0.00 0.03 0.01 90 1010.6
20260509081506 50 0 0.0 0.0 0.00 0.03 0.01 90 1010.6
20260509081027 50 0 0.0 0.0 0.00 0.03 0.01 91 1010.6
20260509080506 50 0 0.0 0.0 0.00 0.03 0.01 91 1010.6
20260509080027 51 0 0.0 0.0 0.00 0.03 0.01 91 1011.0
20260509075506 51 0 0.0 0.0 0.00 0.03 0.01 91 1011.0
20260509075006 51 0 0.0 0.0 0.00 0.03 0.01 91 1011.0
20260509074506 51 0 0.0 0.0 0.00 0.03 0.01 91 1011.3
20260509074006 51 0 0.0 0.0 0.00 0.03 0.01 91 1011.0
20260509073506 51 0 0.0 0.0 0.00 0.03 0.01 91 1011.3
20260509073006 51 0 0.0 0.0 0.00 0.03 0.01 91 1011.3
20260509072506 51 0 0.0 0.0 0.00 0.03 0.01 91 1011.0
20260509072006 51 0 0.0 0.0 0.00 0.03 0.01 91 1011.3
20260509071506 51 0 0.0 0.0 0.00 0.03 0.01 91 1011.3
20260509071006 51 0 0.0 0.0 0.00 0.03 0.01 91 1011.3
20260509070506 51 0 0.0 0.0 0.00 0.03 0.01 91 1011.7
20260509070006 51 0 0.0 0.0 0.00 0.03 0.01 91 1011.3
20260509065506 51 0 0.0 0.0 0.00 0.03 0.01 91 1011.0
20260509065006 51 0 0.0 0.0 0.00 0.03 0.01 91 1011.3
20260509064506 51 0 0.0 0.0 0.00 0.03 0.01 91 1011.3
20260509064006 51 0 0.0 0.0 0.00 0.03 0.01 90 1011.7
20260509063506 51 0 0.0 0.0 0.00 0.03 0.01 89 1011.7
20260509063006 51 0 0.0 0.0 0.00 0.03 0.01 89 1011.7
20260509062506 51 0 0.0 0.0 0.00 0.03 0.01 89 1012.0
20260509062006 51 0 0.0 0.0 0.00 0.03 0.01 89 1011.7
20260509061506 51 0 0.0 0.0 0.00 0.03 0.01 88 1011.7
20260509061006 51 0 0.0 0.0 0.00 0.03 0.01 88 1012.0
20260509060506 51 0 0.0 0.0 0.00 0.03 0.01 88 1012.0
20260509060027 51 0 0.0 0.0 0.01 0.03 0.01 89 1012.0
20260509055506 51 0 0.0 0.0 0.01 0.03 0.01 89 1012.0
20260509055006 51 0 0.0 0.0 0.01 0.03 0.01 89 1012.3
20260509054505 51 0 0.0 0.0 0.01 0.03 0.01 89 1012.0
20260509054005 51 0 0.0 0.0 0.01 0.03 0.01 89 1012.0
20260509053505 51 0 0.0 0.0 0.01 0.03 0.01 90 1012.0
20260509053006 51 0 0.0 0.0 0.01 0.03 0.01 90 1012.3
20260509052527 51 0 0.0 0.0 0.01 0.03 0.01 88 1012.7
20260509052026 52 0 0.0 0.0 0.01 0.03 0.01 88 1012.7
20260509051506 51 0 0.0 0.0 0.01 0.03 0.01 88 1012.7
20260509051005 52 0 0.0 0.0 0.01 0.03 0.01 88 1012.3
20260509050526 52 0 0.0 0.0 0.01 0.03 0.01 88 1012.7
20260509050005 51 0 0.0 0.0 0.00 0.02 0.00 88 1012.7
20260509045506 51 0 0.0 0.0 0.00 0.02 0.00 88 1012.3
20260509045005 51 0 0.0 0.0 0.00 0.02 0.00 88 1012.3
20260509044505 52 0 0.0 0.0 0.00 0.02 0.00 88 1012.3
20260509044005 52 0 0.0 0.0 0.00 0.02 0.00 88 1012.3
20260509043526 52 0 0.0 0.0 0.00 0.02 0.00 88 1012.0
20260509043005 52 0 0.0 0.0 0.00 0.02 0.00 88 1012.0
20260509042505 52 0 0.0 0.0 0.00 0.02 0.00 89 1012.0
20260509042005 52 0 0.0 0.0 0.00 0.02 0.00 89 1012.0
20260509041505 52 0 0.0 0.0 0.00 0.02 0.00 87 1012.0
20260509041005 52 0 0.0 0.0 0.00 0.02 0.00 87 1012.3
20260509040526 52 0 0.0 0.0 0.00 0.02 0.00 87 1012.0
20260509040005 52 0 0.0 0.0 0.00 0.02 0.00 86 1012.0
20260509035505 52 0 0.0 0.0 0.00 0.02 0.02 86 1012.0
20260509035005 52 0 0.0 0.0 0.00 0.02 0.02 86 1012.0
20260509034505 52 0 0.0 0.0 0.00 0.03 0.02 86 1011.7
20260509034026 52 0 0.0 0.0 0.00 0.04 0.02 86 1012.0
20260509033505 52 0 0.0 0.0 0.00 0.04 0.02 87 1012.0
20260509033005 52 0 0.0 0.0 0.00 0.04 0.02 87 1012.0
20260509032526 52 0 0.0 0.0 0.00 0.04 0.02 86 1012.3
20260509032005 52 0 0.0 0.0 0.00 0.04 0.02 87 1012.0
20260509031505 52 0 0.0 0.0 0.00 0.04 0.02 86 1012.3
20260509031026 52 0 0.0 0.0 0.00 0.04 0.02 86 1012.3
20260509030505 52 0 0.0 0.0 0.00 0.04 0.02 87 1012.0
20260509030005 52 0 0.0 0.0 0.00 0.04 0.02 86 1012.0
20260509025505 52 0 0.0 0.0 0.00 0.04 0.02 86 1012.0
20260509025005 52 0 0.0 0.0 0.00 0.04 0.02 86 1012.3
20260509024526 52 0 0.0 0.0 0.00 0.04 0.02 84 1012.3
20260509024005 52 0 0.0 0.0 0.00 0.04 0.02 84 1012.7
20260509023505 52 0 0.0 0.0 0.00 0.04 0.02 84 1012.3
20260509023026 52 0 0.0 0.0 0.00 0.04 0.02 84 1012.3
20260509022505 52 0 0.0 0.0 0.00 0.04 0.02 84 1012.3
20260509022026 52 0 0.0 0.0 0.00 0.04 0.02 83 1012.3
20260509021505 52 0 0.0 0.0 0.00 0.04 0.02 83 1012.7
20260509021026 52 0 0.0 0.0 0.00 0.04 0.02 83 1012.3
20260509020505 53 0 0.0 0.0 0.00 0.04 0.02 84 1012.3
20260509020005 53 0 0.0 0.0 0.00 0.04 0.02 84 1012.0
20260509015505 53 0 0.0 0.0 0.00 0.04 0.02 84 1012.0
20260509015026 53 0 0.0 0.0 0.00 0.04 0.02 83 1012.3
20260509014505 53 0 0.0 0.0 0.00 0.04 0.02 84 1012.0
20260509014026 53 0 0.0 0.0 0.00 0.04 0.02 83 1012.0
20260509013505 53 0 0.0 0.0 0.00 0.04 0.02 83 1012.0
20260509013005 53 0 0.0 0.0 0.00 0.04 0.02 83 1012.0
20260509012526 53 0 0.0 0.0 0.00 0.04 0.02 83 1012.0
20260509012005 53 0 0.0 0.0 0.00 0.04 0.02 82 1011.7
20260509011505 53 0 0.0 0.0 0.00 0.04 0.02 82 1011.7
20260509011005 54 0 0.0 0.0 0.00 0.04 0.02 81 1011.7
20260509010526 54 0 0.0 0.0 0.00 0.04 0.02 81 1012.0
20260509010004 54 0 0.0 0.0 0.00 0.04 0.02 82 1011.7
20260509005505 54 0 0.0 0.0 0.00 0.04 0.02 80 1011.7
20260509005005 54 0 0.0 0.0 0.00 0.04 0.02 80 1011.7
20260509004505 54 0 0.0 0.0 0.00 0.04 0.02 80 1011.7
20260509004005 55 0 0.0 0.0 0.00 0.04 0.02 78 1011.7
20260509003505 55 0 0.0 0.0 0.00 0.04 0.02 75 1011.7
20260509003005 55 0 0.0 0.0 0.00 0.04 0.02 74 1011.7
20260509002526 55 0 0.0 0.0 0.00 0.04 0.02 74 1011.7
20260509002005 55 0 0.0 0.0 0.00 0.04 0.02 73 1011.3
20260509001504 55 0 0.0 0.0 0.00 0.04 0.02 72 1011.3
20260509001004 56 0 0.0 0.0 0.00 0.04 0.02 73 1011.3
20260509000504 56 0 0.0 0.0 0.00 0.04 0.02 73 1011.3
20260509000005 56 0 0.0 0.0 0.00 0.04 0.02 71 1011.3
20260508235504 56 0 0.0 0.0 0.00 0.04 0.02 71 1011.3
20260508235025 56 0 0.0 0.0 0.00 0.04 0.02 71 1011.7